Location: Kra?nica
(53.4833°N, 14.6167°E)
Time: 17:33:37
(UTC+00:00)

UNK - Pass Details

Date: 23 May 2024
Orbit: 660 x 680 km, 98.3° (Epoch: 12 June)

Event Time Altitude Azimuth Distance (km) Brightness Sun altitude
Rises 01:43:03 0° 162° (SSE) 3,030 6.8 -7.8°
Reaches altitude 10° 01:45:17 10° 162° (SSE) 2,119 6.0 -7.6°
Maximum altitude 01:49:55 88° 79° (E) 688 3.8 -7.2°
Drops below altitude 10° 01:54:36 10° 345° (NNW) 2,130 6.8 -6.7°
Sets 01:56:51 0° 345° (NNW) 3,047 7.6 -6.5°
